Regional Weather Roundup
Issued by NWS Jackson, KY

Home | Current Version | Previous Version | Text Only | Print | Product List | Glossary On
Versions: 1 2 3 4 5 6 7 8 9 10 11 12 13 14 15 16 17 18 19 20 21 22 23 24 25 26 27 28 29 30 31 32 33 34 35 36 37 38 39 40 41 42 43 44 45 46 47 48 49 50
000
ASUS43 KJKL 230205
RWRJKL

EAST KENTUCKY HOURLY WEATHER ROUNDUP
NATIONAL WEATHER SERVICE JACKSON KY
1000 PM EDT FRI AUG 22 2014

NOTE: "FAIR" INDICATES FEW OR NO CLOUDS BELOW 12,000 FEET WITH
NO SIGNIFICANT WEATHER AND/OR OBSTRUCTIONS TO VISIBILITY.

* THESE REPORTS ARE NOT UNDER NWS QUALITY CONTROL AND MAY NOT
  REPORT WEATHER SUCH AS PRECIPITATION AND FOG.

KYZ079-080-083-085-087-088-110-112-115-119-120-230300
...EASTERN KENTUCKY...

CITY           SKY/WX    TMP DP  RH WIND       PRES   REMARKS
JACKSON        LGT RAIN  71  68  90 CALM      30.06R
LONDON         CLOUDY    82  71  69 W3        30.06R
SOMERSET*      CLOUDY    77  72  83 CALM      30.05R
MONTICELLO*    PTCLDY    75  74  97 CALM      30.05R
WILLIAMSBURG*  CLEAR     77  73  88 CALM      30.06R
MIDDLESBORO*   MOCLDY    76  72  85 W3        30.06R
HARLAN APT*    CLOUDY    73  72  94 MISG      30.07R
BLACK MTN*       N/A     70  68  94 S1          N/A
PIKEVILLE APT* TSTM      70  70 100 NE5       30.07S
BIG SANDY*     RAIN      72  71  99 SE7       30.04F
MOREHEAD APT*  LGT RAIN  73  72  94 S7G14     30.05R
$$

KYZ035-036-041-042-044-050-067-078-099-230300
...CENTRAL KENTUCKY...

CITY           SKY/WX    TMP DP  RH WIND       PRES   REMARKS
MT STERLING*   CLOUDY    73  72  94 W7        30.06R
FLEMING/MASON* MOCLDY    72  71  98 W5        30.02R
DANVILLE*      CLOUDY    81  73  78 W3        30.04R
RICHMOND*      CLOUDY    75  70  83 NE3       30.04R
LEXINGTON      CLOUDY    76  73  91 CALM      30.03R
FRANKFORT      CLOUDY    74  72  93 CALM      30.02R
$$

KYZ091>093-OHZ055-061-077-WVZ005-015-034-035-042-230300
...SOUTHERN OHIO/WEST VIRGINIA...

CITY           SKY/WX    TMP DP  RH WIND       PRES   REMARKS
COVINGTON      PTCLDY    78  71  79 CALM      30.01R
COLUMBUS       MOCLDY    79  72  79 CALM      29.98R
DAYTON         PTCLDY    75  71  87 CALM      30.01R
WILMINGTON     PTCLDY    73  71  93 CALM      30.00R
HUNTINGTON     CLOUDY    72  71  97 S8        30.00R
CHARLESTON     MOCLDY    73  72  96 CALM      29.99S FOG
PINEVILLE*     CLOUDY    70  70 100 MISG      30.12R
BECKLEY        CLOUDY    69  66  90 SW7       30.09S
BLUEFIELD      LGT RAIN  68  65  90 N5        30.14R VSB 3/4
$$

VAZ002-007-008-TNZ017-027-036-066-071-230300
...SOUTHWEST VIRGINIA/EAST TENNESSEE...

CITY           SKY/WX    TMP DP  RH WIND       PRES   REMARKS
WISE*          CLOUDY    70  70 100 CALM      30.14R
JONESVILLE*      N/A     73  72  94 CALM      30.09R
ABINGDON*      CLOUDY    74  70  88 CALM      30.10R
BRISTOL        CLOUDY    72  70  93 CALM      30.07R FOG
KNOXVILLE      PTCLDY    80  71  74 SW5       30.02R
OAK RIDGE      CLEAR     81  73  76 CALM      30.05R
CROSSVILLE     CLEAR     75  71  87 CALM      30.10R
NASHVILLE      PTCLDY    82  73  74 CALM      30.02R
$$

...KEY TO REMARKS...
VSB - VISIBILITY IN MILES
WCI - WIND CHILL INDEX
HX  - HEAT INDEX

$$


USA.gov is the U.S. government's official web portal to all federal, state and local government web resources and services.